Location: Bougoura
(13.1861°N, 5.0773°W)
Time: 01:21:06
(UTC+00:00)

CZ-4 R/B - Pass Details

Date: 18 September 2020
Orbit: 530 x 600 km, 97.7° (Epoch: 20 October)

Event Time Altitude Azimuth Distance (km) Brightness Sun altitude
Rises 18:35:56 0° 146° (SE) 2,818 4.6 -5.0°
Reaches altitude 10° 18:38:21 10° 133° (SE) 1,924 3.6 -5.5°
Maximum altitude 18:41:51 26° 76° (ENE) 1,183 2.5 -6.4°
Drops below altitude 10° 18:45:22 10° 19° (NNE) 1,935 3.9 -7.2°
Sets 18:47:48 0° 7° (N) 2,837 4.9 -7.8°
